Precipitable_Water
1.54 1.57 1.61 1.59 1.59 1.51 1.41 1.35 1.31 1.30 1.30 1.28 1.27 1.27 1.30 1.34 1.37 1.41 1.45 1.45 1.46 1.43 1.41 1.40 1.38 1.37 1.31 1.33 1.35 1.32 1.27 1.19 1.15 1.14 1.10 1.07 1.06 1.07 1.08 1.12 1.11 1.08 1.06 1.05 1.00 1.02 1.02 0.98 1.00 1.01 0.96 0.92 0.87 0.87 0.87 0.84 0.82 0.81 0.80 0.79 0.81 0.87 0.93 1.05 1.12 1.16 1.17 1.16 1.16 1.17 1.20 1.25 1.24 1.17 1.14 1.26 1.39 1.51 1.61 1.67 1.68 1.65 1.65 1.66 1.64
1.49 1.62 1.65 1.61 1.57 1.48 1.39 1.34 1.32 1.32 1.31 1.29 1.28 1.26 1.26 1.28 1.29 1.32 1.38 1.43 1.45 1.44 1.43 1.41 1.39 1.35 1.32 1.33 1.34 1.32 1.25 1.22 1.20 1.18 1.14 1.09 1.05 1.04 1.05 1.08 1.08 1.06 1.02 1.02 0.99 1.01 1.03 1.11 1.07 0.93 0.94 0.94 0.93 0.92 0.92 0.90 0.87 0.86 0.84 0.81 0.79 0.81 0.90 0.97 1.01 1.07 1.15 1.17 1.15 1.15 1.18 1.20 1.16 1.15 1.26 1.36 1.48 1.60 1.66 1.70 1.68 1.66 1.66 1.64 1.64
1.60 1.63 1.68 1.61 1.54 1.48 1.41 1.36 1.31 1.31 1.32 1.30 1.29 1.28 1.29 1.29 1.29 1.30 1.31 1.34 1.37 1.41 1.42 1.41 1.37 1.33 1.32 1.32 1.31 1.28 1.24 1.23 1.21 1.18 1.13 1.07 1.06 1.07 1.08 1.08 1.07 1.06 1.00 0.97 1.01 1.05 1.10 1.07 0.98 1.00 1.02 0.97 0.95 0.96 0.97 0.97 0.95 0.88 0.84 0.82 0.79 0.81 0.85 0.91 0.95 1.00 1.07 1.14 1.14 1.12 1.12 1.10 1.12 1.19 1.29 1.40 1.48 1.58 1.63 1.69 1.67 1.65 1.65 1.64 1.68
1.58 1.64 1.65 1.60 1.54 1.48 1.43 1.38 1.34 1.33 1.33 1.32 1.30 1.31 1.31 1.31 1.30 1.30 1.30 1.31 1.33 1.35 1.37 1.35 1.32 1.33 1.36 1.34 1.27 1.26 1.26 1.24 1.22 1.19 1.15 1.12 1.09 1.09 1.09 1.06 1.01 1.05 1.08 1.05 1.06 1.07 1.02 1.00 1.05 1.05 1.06 1.03 1.00 0.99 1.00 1.02 1.00 0.96 0.87 0.82 0.78 0.78 0.81 0.85 0.90 0.95 1.02 1.07 1.09 1.07 1.05 1.06 1.11 1.18 1.27 1.39 1.50 1.54 1.59 1.68 1.68 1.68 1.73 1.69 1.68
1.64 1.65 1.61 1.60 1.54 1.49 1.45 1.39 1.36 1.35 1.32 1.31 1.31 1.32 1.33 1.30 1.28 1.28 1.28 1.29 1.31 1.32 1.33 1.32 1.32 1.36 1.37 1.32 1.28 1.28 1.24 1.22 1.19 1.19 1.16 1.14 1.13 1.15 1.17 1.19 1.16 1.13 1.05 1.05 1.04 1.02 1.06 1.08 1.07 1.10 1.11 1.09 1.07 1.07 1.08 1.10 1.09 1.04 0.93 0.85 0.80 0.75 0.75 0.78 0.84 0.89 0.94 0.98 1.02 1.03 1.04 1.04 1.09 1.13 1.20 1.31 1.43 1.58 1.64 1.69 1.66 1.64 1.72 1.69 1.62
1.65 1.63 1.62 1.60 1.56 1.51 1.47 1.40 1.37 1.35 1.32 1.28 1.30 1.33 1.34 1.30 1.26 1.25 1.26 1.27 1.29 1.30 1.29 1.29 1.32 1.34 1.35 1.27 1.29 1.27 1.24 1.24 1.22 1.19 1.19 1.15 1.13 1.16 1.21 1.22 1.18 1.11 1.08 1.07 1.11 1.16 1.16 1.13 1.12 1.12 1.13 1.13 1.12 1.12 1.13 1.11 1.10 1.09 1.02 0.91 0.84 0.78 0.71 0.71 0.77 0.82 0.85 0.90 0.95 0.99 1.02 1.02 1.03 1.08 1.13 1.21 1.33 1.44 1.50 1.58 1.61 1.59 1.53 1.42 1.31
1.65 1.65 1.64 1.60 1.56 1.53 1.46 1.40 1.34 1.34 1.35 1.34 1.31 1.29 1.29 1.28 1.25 1.24 1.24 1.24 1.26 1.27 1.27 1.27 1.28 1.29 1.22 1.19 1.22 1.23 1.25 1.30 1.27 1.21 1.17 1.16 1.11 1.13 1.17 1.17 1.13 1.12 1.15 1.18 1.20 1.16 1.15 1.18 1.18 1.17 1.16 1.17 1.17 1.14 1.13 1.11 1.12 1.11 1.07 0.97 0.89 0.83 0.77 0.71 0.72 0.77 0.80 0.85 0.89 0.92 0.96 0.98 0.99 1.02 1.05 1.09 1.19 1.23 1.28 1.31 1.32 1.31 1.25 1.18 1.13
1.70 1.66 1.64 1.59 1.55 1.49 1.43 1.38 1.34 1.35 1.37 1.38 1.36 1.35 1.32 1.25 1.21 1.21 1.22 1.22 1.21 1.22 1.24 1.23 1.21 1.19 1.18 1.24 1.28 1.34 1.37 1.39 1.34 1.28 1.20 1.13 1.10 1.15 1.16 1.18 1.13 1.19 1.22 1.24 1.23 1.22 1.20 1.19 1.19 1.17 1.17 1.18 1.18 1.16 1.13 1.10 1.10 1.11 1.09 1.02 0.91 0.84 0.79 0.75 0.73 0.72 0.74 0.77 0.83 0.83 0.87 0.91 0.92 0.94 1.01 1.02 1.07 1.13 1.14 1.15 1.15 1.12 1.08 1.06 1.04
1.61 1.61 1.58 1.56 1.51 1.45 1.42 1.39 1.37 1.38 1.40 1.40 1.38 1.37 1.36 1.35 1.31 1.27 1.22 1.18 1.18 1.17 1.18 1.21 1.22 1.25 1.29 1.35 1.39 1.43 1.49 1.48 1.43 1.37 1.29 1.13 1.08 1.15 1.17 1.17 1.18 1.23 1.23 1.21 1.21 1.20 1.19 1.18 1.17 1.15 1.17 1.17 1.17 1.16 1.12 1.09 1.09 1.08 1.08 1.05 0.96 0.87 0.81 0.77 0.76 0.75 0.74 0.73 0.75 0.78 0.81 0.82 0.85 0.88 0.92 0.93 0.96 1.01 1.04 1.05 1.07 1.06 1.02 0.99 0.98
1.55 1.56 1.55 1.53 1.50 1.46 1.43 1.39 1.39 1.40 1.41 1.41 1.40 1.39 1.39 1.40 1.38 1.35 1.28 1.22 1.18 1.15 1.14 1.20 1.25 1.32 1.34 1.37 1.42 1.52 1.50 1.60 1.46 1.43 1.34 1.17 1.10 1.11 1.14 1.14 1.17 1.20 1.22 1.23 1.23 1.22 1.20 1.19 1.19 1.16 1.16 1.15 1.12 1.11 1.09 1.07 1.06 1.05 1.06 1.06 1.01 0.92 0.83 0.78 0.79 0.79 0.77 0.73 0.72 0.74 0.77 0.79 0.78 0.79 0.80 0.85 0.86 0.92 0.93 0.95 0.95 0.94 0.90 0.91 0.91
1.54 1.55 1.55 1.54 1.50 1.47 1.44 1.41 1.42 1.42 1.43 1.43 1.43 1.42 1.42 1.42 1.42 1.37 1.30 1.23 1.20 1.16 1.13 1.16 1.21 1.26 1.31 1.33 1.40 1.46 1.52 1.59 1.54 1.42 1.35 1.27 1.17 1.11 1.08 1.13 1.18 1.21 1.24 1.26 1.26 1.25 1.21 1.20 1.18 1.15 1.11 1.09 1.08 1.08 1.10 1.10 1.09 1.08 1.06 1.06 1.01 0.94 0.84 0.78 0.80 0.79 0.79 0.80 0.79 0.76 0.73 0.77 0.81 0.81 0.83 0.81 0.81 0.82 0.84 0.85 0.85 0.82 0.86 0.86 0.86
1.52 1.55 1.54 1.53 1.51 1.48 1.45 1.43 1.43 1.44 1.45 1.45 1.44 1.44 1.43 1.44 1.41 1.37 1.31 1.21 1.20 1.19 1.20 1.24 1.24 1.26 1.26 1.25 1.32 1.43 1.50 1.50 1.47 1.39 1.37 1.33 1.25 1.16 1.11 1.14 1.20 1.21 1.24 1.26 1.27 1.24 1.21 1.20 1.16 1.10 1.07 1.08 1.11 1.12 1.12 1.10 1.11 1.10 1.07 1.05 1.01 0.94 0.86 0.83 0.84 0.83 0.84 0.83 0.83 0.83 0.83 0.84 0.84 0.86 0.86 0.85 0.85 0.84 0.83 0.82 0.79 0.83 0.84 0.83 0.83
1.48 1.52 1.53 1.53 1.49 1.49 1.49 1.46 1.43 1.45 1.47 1.46 1.45 1.44 1.45 1.44 1.42 1.40 1.33 1.21 1.21 1.23 1.25 1.27 1.28 1.32 1.34 1.33 1.24 1.25 1.31 1.32 1.35 1.34 1.33 1.28 1.25 1.20 1.13 1.14 1.20 1.23 1.23 1.23 1.23 1.23 1.23 1.19 1.17 1.12 1.07 1.08 1.11 1.14 1.13 1.11 1.11 1.10 1.07 1.04 1.00 0.95 0.88 0.86 0.86 0.85 0.85 0.85 0.84 0.84 0.83 0.83 0.83 0.84 0.86 0.85 0.84 0.85 0.86 0.85 0.85 0.86 0.89 0.89 0.88
1.42 1.46 1.50 1.51 1.50 1.52 1.51 1.48 1.46 1.48 1.49 1.48 1.47 1.48 1.47 1.45 1.44 1.41 1.30 1.22 1.23 1.26 1.26 1.24 1.27 1.32 1.39 1.38 1.39 1.27 1.28 1.28 1.30 1.29 1.28 1.25 1.21 1.22 1.17 1.15 1.19 1.21 1.22 1.21 1.20 1.21 1.22 1.21 1.18 1.14 1.10 1.10 1.12 1.13 1.13 1.12 1.12 1.09 1.06 1.03 1.00 0.97 0.91 0.90 0.89 0.87 0.86 0.85 0.86 0.86 0.86 0.86 0.85 0.82 0.82 0.86 0.87 0.87 0.86 0.86 0.88 0.88 0.89 0.88 0.85
1.38 1.44 1.50 1.53 1.55 1.55 1.54 1.52 1.50 1.51 1.52 1.53 1.54 1.53 1.50 1.47 1.45 1.41 1.25 1.20 1.21 1.22 1.24 1.25 1.27 1.32 1.38 1.36 1.40 1.40 1.36 1.36 1.33 1.30 1.26 1.24 1.21 1.20 1.19 1.17 1.15 1.18 1.18 1.17 1.18 1.20 1.23 1.21 1.17 1.11 1.10 1.11 1.13 1.12 1.11 1.10 1.10 1.09 1.06 1.04 1.02 0.98 0.94 0.91 0.90 0.88 0.86 0.86 0.85 0.87 0.87 0.87 0.88 0.89 0.88 0.85 0.83 0.82 0.83 0.84 0.83 0.83 0.83 0.83 0.81
1.47 1.48 1.54 1.55 1.56 1.57 1.57 1.56 1.55 1.56 1.57 1.58 1.58 1.55 1.52 1.48 1.41 1.34 1.17 1.16 1.20 1.23 1.26 1.28 1.31 1.34 1.37 1.39 1.41 1.39 1.38 1.36 1.28 1.25 1.22 1.23 1.21 1.22 1.20 1.18 1.18 1.18 1.18 1.19 1.20 1.21 1.21 1.19 1.15 1.09 1.08 1.10 1.12 1.12 1.10 1.07 1.08 1.08 1.07 1.06 1.05 1.02 0.98 0.94 0.92 0.91 0.89 0.88 0.90 0.91 0.91 0.90 0.89 0.87 0.87 0.84 0.81 0.76 0.75 0.78 0.80 0.81 0.80 0.81 0.84
1.52 1.55 1.53 1.56 1.59 1.58 1.60 1.60 1.63 1.63 1.62 1.60 1.56 1.51 1.46 1.41 1.36 1.28 1.15 1.20 1.23 1.26 1.29 1.35 1.39 1.41 1.40 1.42 1.40 1.37 1.32 1.28 1.26 1.28 1.25 1.21 1.21 1.23 1.24 1.24 1.20 1.20 1.20 1.20 1.20 1.19 1.19 1.20 1.19 1.13 1.10 1.11 1.13 1.12 1.11 1.08 1.06 1.06 1.06 1.07 1.07 1.05 1.02 0.99 0.94 0.94 0.93 0.90 0.90 0.93 0.92 0.91 0.89 0.87 0.87 0.87 0.86 0.85 0.81 0.79 0.79 0.80 0.82 0.82 0.83
1.53 1.57 1.54 1.57 1.59 1.60 1.62 1.65 1.67 1.64 1.60 1.53 1.49 1.46 1.44 1.40 1.34 1.23 1.18 1.23 1.26 1.31 1.37 1.41 1.44 1.45 1.42 1.37 1.34 1.31 1.29 1.29 1.30 1.30 1.27 1.24 1.23 1.23 1.23 1.21 1.17 1.18 1.19 1.19 1.20 1.20 1.20 1.19 1.17 1.16 1.15 1.15 1.15 1.15 1.12 1.10 1.08 1.06 1.06 1.06 1.06 1.05 1.04 1.01 0.97 0.97 0.96 0.94 0.92 0.94 0.93 0.90 0.89 0.91 0.90 0.89 0.89 0.87 0.83 0.81 0.78 0.74 0.76 0.79 0.79
1.52 1.55 1.56 1.55 1.57 1.59 1.63 1.66 1.63 1.58 1.54 1.52 1.49 1.48 1.45 1.40 1.32 1.18 1.19 1.23 1.30 1.36 1.42 1.46 1.45 1.40 1.36 1.34 1.36 1.37 1.37 1.37 1.36 1.35 1.34 1.32 1.30 1.25 1.23 1.21 1.20 1.17 1.18 1.20 1.21 1.22 1.21 1.18 1.17 1.15 1.15 1.17 1.16 1.15 1.16 1.12 1.10 1.09 1.08 1.07 1.06 1.05 1.04 1.04 0.99 0.97 0.96 0.98 0.97 0.97 0.95 0.95 0.95 0.93 0.93 0.93 0.90 0.86 0.83 0.84 0.81 0.79 0.77 0.79 0.82
1.49 1.52 1.52 1.56 1.57 1.56 1.55 1.57 1.57 1.55 1.53 1.54 1.54 1.50 1.46 1.38 1.26 1.13 1.20 1.26 1.36 1.44 1.47 1.48 1.47 1.45 1.44 1.49 1.52 1.53 1.53 1.49 1.47 1.46 1.43 1.42 1.38 1.34 1.26 1.21 1.19 1.17 1.16 1.18 1.21 1.21 1.20 1.18 1.18 1.17 1.14 1.14 1.19 1.19 1.18 1.17 1.13 1.12 1.12 1.10 1.08 1.06 1.06 1.06 1.02 0.98 0.97 0.97 0.99 0.97 0.93 0.95 0.94 0.96 0.96 0.94 0.92 0.92 0.89 0.85 0.84 0.84 0.82 0.75 0.75
1.45 1.48 1.51 1.51 1.51 1.49 1.49 1.54 1.53 1.54 1.54 1.54 1.56 1.52 1.48 1.37 1.22 1.19 1.31 1.41 1.47 1.50 1.50 1.53 1.56 1.56 1.59 1.62 1.62 1.63 1.63 1.60 1.58 1.56 1.57 1.53 1.48 1.41 1.28 1.22 1.20 1.17 1.15 1.14 1.16 1.16 1.16 1.17 1.18 1.18 1.15 1.17 1.24 1.25 1.22 1.21 1.18 1.16 1.15 1.13 1.11 1.10 1.10 1.08 1.04 1.03 1.00 1.00 1.01 1.00 1.00 0.99 0.99 0.99 0.98 0.95 0.95 0.91 0.87 0.90 0.88 0.84 0.83 0.84 0.82
1.35 1.40 1.45 1.45 1.45 1.47 1.48 1.51 1.51 1.52 1.57 1.56 1.57 1.55 1.47 1.35 1.24 1.31 1.46 1.53 1.58 1.58 1.60 1.61 1.62 1.63 1.63 1.64 1.66 1.65 1.64 1.62 1.62 1.61 1.61 1.58 1.53 1.44 1.33 1.30 1.27 1.24 1.18 1.12 1.09 1.12 1.15 1.16 1.19 1.19 1.20 1.21 1.24 1.26 1.24 1.24 1.22 1.20 1.19 1.17 1.14 1.13 1.12 1.09 1.07 1.06 1.05 1.07 1.06 1.05 1.01 0.98 0.98 0.97 0.97 0.97 0.96 0.95 0.92 0.92 0.94 0.91 0.89 0.85 0.82
1.27 1.33 1.36 1.42 1.44 1.46 1.47 1.46 1.49 1.53 1.55 1.55 1.55 1.53 1.46 1.33 1.26 1.43 1.55 1.63 1.63 1.64 1.65 1.61 1.61 1.62 1.63 1.66 1.67 1.65 1.63 1.61 1.60 1.58 1.60 1.61 1.55 1.40 1.37 1.36 1.29 1.20 1.15 1.15 1.15 1.14 1.16 1.20 1.23 1.25 1.25 1.23 1.24 1.24 1.25 1.26 1.25 1.23 1.22 1.19 1.17 1.16 1.15 1.12 1.10 1.09 1.08 1.11 1.12 1.10 1.06 1.00 0.97 0.95 0.95 0.98 0.96 0.95 0.97 0.95 0.93 0.93 0.90 0.90 0.88
1.25 1.29 1.33 1.41 1.42 1.42 1.45 1.50 1.49 1.51 1.54 1.53 1.53 1.50 1.43 1.29 1.36 1.53 1.59 1.61 1.61 1.62 1.60 1.59 1.60 1.62 1.64 1.66 1.65 1.65 1.61 1.59 1.57 1.56 1.57 1.54 1.47 1.39 1.37 1.34 1.31 1.28 1.23 1.20 1.18 1.18 1.20 1.25 1.27 1.27 1.27 1.25 1.26 1.26 1.26 1.29 1.26 1.24 1.22 1.20 1.18 1.17 1.15 1.13 1.12 1.12 1.13 1.15 1.14 1.15 1.13 1.13 1.11 1.03 0.96 0.93 0.95 0.95 0.93 0.89 0.89 0.90 0.87 0.83 0.84
1.30 1.36 1.37 1.38 1.43 1.45 1.50 1.49 1.52 1.55 1.53 1.50 1.49 1.45 1.38 1.29 1.45 1.54 1.55 1.57 1.58 1.58 1.58 1.59 1.61 1.64 1.66 1.62 1.67 1.61 1.58 1.57 1.58 1.55 1.51 1.46 1.40 1.37 1.36 1.35 1.34 1.31 1.27 1.22 1.22 1.22 1.23 1.24 1.27 1.28 1.28 1.28 1.27 1.27 1.28 1.28 1.27 1.24 1.21 1.19 1.17 1.16 1.15 1.15 1.15 1.16 1.17 1.18 1.15 1.16 1.16 1.18 1.19 1.16 1.08 1.03 0.99 0.93 0.91 0.93 0.94 0.88 0.88 0.88 0.85
1.34 1.30 1.36 1.40 1.48 1.52 1.51 1.50 1.53 1.54 1.52 1.50 1.48 1.45 1.36 1.33 1.45 1.53 1.53 1.56 1.56 1.55 1.55 1.57 1.61 1.63 1.63 1.63 1.62 1.55 1.53 1.53 1.54 1.49 1.40 1.37 1.34 1.32 1.33 1.32 1.31 1.28 1.30 1.26 1.26 1.27 1.27 1.26 1.24 1.22 1.24 1.28 1.28 1.28 1.31 1.31 1.28 1.26 1.23 1.20 1.17 1.15 1.14 1.14 1.16 1.17 1.20 1.19 1.17 1.16 1.17 1.20 1.23 1.22 1.16 1.11 1.03 0.98 0.91 0.90 0.90 0.88 0.87 0.84 0.83
1.27 1.30 1.39 1.43 1.52 1.51 1.52 1.54 1.53 1.52 1.52 1.54 1.53 1.47 1.40 1.40 1.45 1.48 1.48 1.51 1.53 1.51 1.50 1.53 1.56 1.61 1.60 1.59 1.51 1.48 1.48 1.50 1.46 1.40 1.34 1.34 1.30 1.32 1.32 1.32 1.30 1.31 1.32 1.28 1.26 1.27 1.27 1.26 1.26 1.24 1.25 1.24 1.25 1.27 1.31 1.33 1.32 1.29 1.27 1.24 1.22 1.19 1.17 1.15 1.16 1.18 1.20 1.19 1.18 1.17 1.18 1.22 1.24 1.24 1.21 1.17 1.09 1.02 0.97 0.91 0.91 0.92 0.91 0.92 0.89
1.28 1.31 1.38 1.47 1.51 1.49 1.55 1.57 1.53 1.51 1.53 1.56 1.52 1.45 1.40 1.37 1.45 1.48 1.50 1.51 1.50 1.47 1.47 1.48 1.53 1.55 1.55 1.53 1.52 1.50 1.48 1.43 1.40 1.35 1.32 1.32 1.31 1.33 1.34 1.34 1.35 1.35 1.34 1.32 1.29 1.29 1.29 1.29 1.28 1.27 1.26 1.24 1.22 1.24 1.29 1.32 1.34 1.34 1.30 1.29 1.26 1.24 1.21 1.19 1.19 1.20 1.21 1.22 1.19 1.19 1.18 1.20 1.23 1.25 1.24 1.20 1.14 1.04 0.99 0.97 0.95 0.91 0.90 0.86 0.83
1.30 1.32 1.38 1.43 1.49 1.52 1.55 1.54 1.54 1.54 1.55 1.54 1.48 1.47 1.39 1.40 1.45 1.46 1.47 1.50 1.48 1.47 1.46 1.46 1.46 1.50 1.50 1.51 1.52 1.47 1.46 1.42 1.37 1.35 1.35 1.32 1.33 1.35 1.37 1.38 1.41 1.41 1.40 1.36 1.37 1.34 1.32 1.30 1.29 1.29 1.28 1.24 1.23 1.22 1.26 1.31 1.35 1.36 1.34 1.31 1.31 1.30 1.27 1.25 1.23 1.22 1.25 1.26 1.28 1.23 1.22 1.21 1.22 1.25 1.26 1.24 1.17 1.08 1.03 1.01 0.97 0.93 0.91 0.86 0.83
1.38 1.39 1.39 1.41 1.48 1.53 1.53 1.55 1.56 1.54 1.54 1.53 1.49 1.41 1.38 1.40 1.45 1.46 1.49 1.51 1.48 1.49 1.47 1.44 1.45 1.46 1.46 1.51 1.51 1.48 1.44 1.41 1.37 1.36 1.34 1.33 1.37 1.39 1.39 1.40 1.40 1.42 1.42 1.37 1.39 1.39 1.35 1.34 1.32 1.29 1.25 1.23 1.22 1.24 1.24 1.25 1.29 1.34 1.36 1.36 1.37 1.36 1.34 1.29 1.26 1.25 1.28 1.30 1.32 1.31 1.28 1.26 1.25 1.26 1.27 1.27 1.24 1.20 1.11 1.05 1.03 0.96 0.91 0.89 0.87
1.46 1.46 1.44 1.46 1.49 1.51 1.52 1.58 1.56 1.56 1.54 1.47 1.45 1.37 1.39 1.43 1.47 1.50 1.52 1.50 1.50 1.49 1.45 1.44 1.45 1.46 1.49 1.51 1.48 1.47 1.46 1.43 1.40 1.37 1.35 1.34 1.38 1.41 1.41 1.41 1.38 1.38 1.40 1.38 1.41 1.39 1.38 1.36 1.32 1.28 1.24 1.23 1.23 1.27 1.27 1.25 1.27 1.31 1.36 1.37 1.40 1.40 1.35 1.34 1.31 1.28 1.30 1.31 1.34 1.35 1.34 1.29 1.26 1.26 1.27 1.26 1.23 1.20 1.16 1.13 1.07 1.03 1.00 0.95 0.92
1.46 1.57 1.54 1.58 1.53 1.54 1.54 1.58 1.58 1.55 1.49 1.44 1.44 1.36 1.39 1.45 1.49 1.53 1.52 1.53 1.52 1.46 1.43 1.45 1.46 1.48 1.49 1.47 1.44 1.44 1.47 1.46 1.44 1.38 1.34 1.33 1.38 1.39 1.39 1.35 1.33 1.35 1.35 1.35 1.34 1.36 1.36 1.34 1.31 1.29 1.28 1.27 1.26 1.29 1.30 1.28 1.27 1.30 1.34 1.37 1.39 1.37 1.35 1.32 1.29 1.28 1.31 1.33 1.35 1.34 1.36 1.33 1.25 1.25 1.25 1.24 1.20 1.21 1.25 1.19 1.13 1.06 1.01 0.97 0.94
1.53 1.66 1.62 1.61 1.59 1.59 1.55 1.57 1.54 1.50 1.46 1.42 1.40 1.38 1.43 1.48 1.50 1.53 1.53 1.53 1.49 1.45 1.42 1.43 1.45 1.46 1.45 1.43 1.41 1.43 1.46 1.45 1.44 1.41 1.37 1.35 1.35 1.33 1.30 1.29 1.29 1.32 1.34 1.34 1.33 1.32 1.31 1.29 1.25 1.26 1.26 1.28 1.28 1.29 1.32 1.32 1.29 1.29 1.33 1.36 1.38 1.34 1.34 1.34 1.33 1.34 1.34 1.36 1.38 1.39 1.37 1.37 1.29 1.24 1.23 1.23 1.23 1.20 1.20 1.19 1.08 1.00 0.98 1.01 1.03
1.50 1.66 1.70 1.62 1.64 1.66 1.58 1.53 1.53 1.51 1.47 1.43 1.38 1.38 1.44 1.48 1.52 1.53 1.53 1.50 1.45 1.43 1.40 1.40 1.43 1.43 1.43 1.41 1.41 1.43 1.43 1.45 1.42 1.39 1.36 1.31 1.31 1.29 1.26 1.26 1.29 1.32 1.33 1.32 1.28 1.26 1.21 1.19 1.19 1.22 1.21 1.23 1.24 1.28 1.30 1.28 1.32 1.36 1.37 1.39 1.41 1.41 1.43 1.44 1.44 1.43 1.44 1.42 1.46 1.43 1.41 1.39 1.37 1.36 1.31 1.22 1.16 1.15 1.19 1.18 1.13 1.08 1.07 1.08 1.11
1.58 1.56 1.58 1.59 1.59 1.56 1.57 1.55 1.56 1.49 1.48 1.41 1.39 1.41 1.47 1.49 1.50 1.51 1.50 1.46 1.43 1.41 1.40 1.39 1.41 1.43 1.43 1.41 1.41 1.41 1.41 1.41 1.41 1.35 1.29 1.26 1.21 1.20 1.21 1.23 1.28 1.30 1.27 1.28 1.24 1.22 1.19 1.16 1.18 1.16 1.20 1.22 1.25 1.28 1.28 1.28 1.29 1.30 1.34 1.38 1.40 1.46 1.49 1.47 1.50 1.50 1.47 1.46 1.47 1.47 1.46 1.44 1.42 1.41 1.39 1.31 1.20 1.18 1.24 1.27 1.26 1.22 1.16 1.14 1.15
1.57 1.55 1.63 1.62 1.51 1.48 1.50 1.49 1.53 1.50 1.47 1.44 1.44 1.47 1.50 1.51 1.50 1.50 1.47 1.45 1.42 1.41 1.43 1.43 1.44 1.45 1.44 1.43 1.41 1.40 1.39 1.37 1.34 1.30 1.23 1.20 1.15 1.13 1.15 1.20 1.23 1.25 1.23 1.24 1.23 1.20 1.19 1.16 1.18 1.20 1.15 1.18 1.22 1.23 1.27 1.26 1.29 1.30 1.35 1.40 1.43 1.45 1.47 1.48 1.48 1.48 1.48 1.50 1.49 1.51 1.48 1.47 1.47 1.46 1.46 1.46 1.42 1.36 1.32 1.32 1.30 1.26 1.23 1.24 1.23
1.53 1.57 1.58 1.53 1.50 1.46 1.47 1.40 1.41 1.45 1.43 1.43 1.44 1.47 1.50 1.48 1.47 1.47 1.45 1.43 1.39 1.40 1.44 1.45 1.45 1.45 1.44 1.42 1.39 1.36 1.33 1.31 1.29 1.26 1.20 1.15 1.14 1.17 1.20 1.22 1.25 1.23 1.24 1.24 1.22 1.21 1.18 1.15 1.16 1.19 1.21 1.18 1.21 1.21 1.23 1.26 1.27 1.31 1.35 1.37 1.41 1.43 1.42 1.40 1.44 1.47 1.49 1.48 1.47 1.49 1.51 1.55 1.52 1.49 1.49 1.47 1.47 1.46 1.35 1.35 1.33 1.33 1.34 1.34 1.34
1.40 1.44 1.41 1.40 1.40 1.44 1.45 1.43 1.44 1.44 1.44 1.42 1.42 1.44 1.48 1.48 1.47 1.46 1.43 1.39 1.38 1.39 1.42 1.42 1.39 1.40 1.40 1.35 1.33 1.30 1.29 1.27 1.25 1.22 1.18 1.16 1.20 1.24 1.31 1.32 1.30 1.29 1.26 1.23 1.21 1.22 1.20 1.18 1.14 1.19 1.22 1.21 1.19 1.20 1.21 1.24 1.27 1.29 1.32 1.35 1.39 1.41 1.41 1.43 1.44 1.44 1.46 1.45 1.46 1.52 1.52 1.53 1.55 1.54 1.54 1.52 1.51 1.50 1.45 1.42 1.40 1.41 1.43 1.43 1.42
1.26 1.33 1.32 1.39 1.36 1.38 1.40 1.42 1.44 1.43 1.43 1.43 1.44 1.46 1.47 1.46 1.46 1.42 1.38 1.35 1.36 1.37 1.38 1.36 1.36 1.35 1.32 1.30 1.29 1.28 1.26 1.23 1.20 1.19 1.17 1.17 1.18 1.23 1.26 1.28 1.27 1.26 1.26 1.23 1.22 1.22 1.19 1.17 1.14 1.16 1.22 1.24 1.22 1.24 1.24 1.24 1.24 1.27 1.29 1.34 1.39 1.39 1.39 1.40 1.42 1.42 1.44 1.46 1.49 1.52 1.56 1.51 1.54 1.54 1.54 1.54 1.54 1.54 1.50 1.51 1.50 1.50 1.47 1.46 1.46
1.03 1.17 1.20 1.27 1.26 1.24 1.29 1.37 1.40 1.44 1.45 1.43 1.44 1.42 1.42 1.38 1.34 1.35 1.31 1.28 1.29 1.29 1.33 1.32 1.32 1.31 1.31 1.28 1.26 1.23 1.20 1.16 1.16 1.19 1.18 1.19 1.15 1.13 1.15 1.19 1.20 1.21 1.18 1.15 1.15 1.17 1.15 1.12 1.13 1.15 1.16 1.21 1.26 1.27 1.27 1.23 1.23 1.25 1.27 1.33 1.38 1.39 1.36 1.35 1.36 1.37 1.43 1.49 1.51 1.52 1.50 1.51 1.51 1.50 1.51 1.51 1.52 1.51 1.50 1.48 1.49 1.45 1.42 1.40 1.38
1.05 1.07 1.13 1.19 1.24 1.24 1.30 1.30 1.40 1.47 1.45 1.41 1.40 1.39 1.35 1.34 1.35 1.28 1.22 1.23 1.22 1.26 1.25 1.27 1.28 1.29 1.27 1.25 1.21 1.17 1.16 1.17 1.17 1.16 1.12 1.12 1.10 1.09 1.10 1.14 1.18 1.18 1.18 1.17 1.19 1.20 1.20 1.16 1.13 1.16 1.14 1.13 1.17 1.24 1.24 1.24 1.15 1.15 1.25 1.27 1.30 1.40 1.39 1.37 1.36 1.39 1.42 1.45 1.46 1.45 1.49 1.47 1.47 1.46 1.48 1.50 1.49 1.49 1.41 1.46 1.46 1.42 1.38 1.35 1.32
0.98 1.05 1.08 1.14 1.21 1.27 1.29 1.37 1.45 1.46 1.46 1.45 1.43 1.41 1.41 1.35 1.28 1.23 1.23 1.21 1.21 1.20 1.18 1.22 1.25 1.27 1.25 1.21 1.18 1.18 1.19 1.17 1.14 1.11 1.10 1.08 1.04 1.05 1.09 1.13 1.17 1.21 1.22 1.21 1.19 1.19 1.17 1.14 1.12 1.09 1.17 1.13 1.12 1.20 1.22 1.17 1.06 1.03 1.02 1.07 1.18 1.30 1.36 1.38 1.36 1.38 1.40 1.39 1.42 1.43 1.44 1.43 1.42 1.43 1.46 1.46 1.45 1.43 1.43 1.41 1.40 1.38 1.38 1.34 1.30
0.96 1.01 1.04 1.11 1.20 1.27 1.33 1.40 1.45 1.49 1.49 1.49 1.46 1.41 1.42 1.40 1.31 1.26 1.23 1.21 1.30 1.28 1.24 1.25 1.26 1.22 1.21 1.21 1.21 1.20 1.17 1.15 1.14 1.13 1.11 1.11 1.10 1.10 1.12 1.18 1.19 1.21 1.17 1.14 1.12 1.11 1.14 1.11 1.09 1.06 1.07 1.15 1.15 1.22 1.20 1.18 1.01 1.09 1.10 1.02 0.98 1.00 1.18 1.28 1.34 1.34 1.37 1.37 1.37 1.36 1.40 1.43 1.43 1.45 1.47 1.45 1.41 1.40 1.39 1.38 1.36 1.37 1.37 1.35 1.32
0.96 1.03 1.06 1.09 1.19 1.28 1.34 1.39 1.42 1.45 1.47 1.49 1.48 1.47 1.45 1.42 1.37 1.31 1.28 1.26 1.22 1.25 1.24 1.24 1.22 1.20 1.17 1.20 1.21 1.20 1.17 1.16 1.17 1.15 1.15 1.15 1.14 1.14 1.17 1.17 1.16 1.17 1.13 1.07 1.07 1.07 1.11 1.10 1.08 1.09 1.10 1.01 1.06 1.10 1.20 1.19 1.11 1.04 0.88 0.92 0.96 1.00 0.93 1.03 1.13 1.23 1.34 1.33 1.32 1.32 1.37 1.37 1.41 1.44 1.45 1.41 1.41 1.39 1.39 1.39 1.36 1.38 1.36 1.33 1.31
0.94 0.98 1.07 1.10 1.17 1.27 1.37 1.41 1.43 1.43 1.45 1.48 1.47 1.47 1.42 1.36 1.31 1.27 1.27 1.25 1.24 1.19 1.16 1.12 1.15 1.16 1.14 1.14 1.15 1.18 1.17 1.17 1.18 1.18 1.15 1.12 1.14 1.13 1.11 1.11 1.10 1.11 1.09 1.05 1.04 1.05 1.09 1.11 1.08 1.06 1.06 1.01 0.98 1.04 1.12 1.17 1.14 1.19 1.03 0.90 0.88 0.88 0.92 1.01 1.10 1.12 1.27 1.26 1.27 1.29 1.31 1.33 1.36 1.39 1.39 1.39 1.42 1.40 1.39 1.36 1.36 1.36 1.33 1.31 1.29
0.98 1.01 1.10 1.15 1.17 1.26 1.37 1.42 1.44 1.44 1.44 1.45 1.46 1.42 1.36 1.26 1.16 1.08 1.06 1.06 0.99 1.00 0.98 0.99 1.04 1.06 1.06 1.14 1.14 1.15 1.15 1.15 1.15 1.14 1.13 1.11 1.08 1.08 1.07 1.06 1.05 1.06 1.05 1.04 1.05 1.04 1.03 1.04 1.06 1.07 1.05 1.07 1.03 1.01 1.00 1.14 1.15 1.15 1.14 1.10 1.06 0.93 0.90 1.01 0.99 0.85 1.15 1.23 1.23 1.26 1.25 1.29 1.33 1.32 1.35 1.35 1.34 1.33 1.33 1.29 1.29 1.28 1.25 1.22 1.20
1.06 1.09 1.12 1.17 1.19 1.24 1.35 1.39 1.39 1.41 1.44 1.43 1.43 1.39 1.34 1.27 1.16 1.09 1.05 0.99 0.93 0.99 1.08 1.10 1.09 1.10 1.13 1.09 1.10 1.13 1.12 1.10 1.09 1.10 1.07 1.07 1.05 1.05 1.05 1.05 1.06 1.06 1.06 1.04 1.02 1.00 1.01 1.03 1.06 1.05 1.05 1.06 1.05 0.95 0.96 1.02 1.10 1.13 1.14 1.15 1.12 1.10 1.09 0.96 0.86 0.94 0.85 1.04 1.15 1.16 1.20 1.27 1.28 1.28 1.28 1.28 1.26 1.26 1.26 1.23 1.20 1.17 1.15 1.14 1.15
1.14 1.14 1.14 1.18 1.17 1.21 1.32 1.35 1.38 1.40 1.41 1.42 1.40 1.39 1.32 1.26 1.17 1.11 1.07 1.02 0.98 0.97 1.02 1.06 1.11 1.09 1.06 1.04 1.04 1.02 1.03 1.02 1.01 1.02 1.04 1.03 1.02 1.01 1.02 1.03 1.03 1.06 1.06 1.03 1.02 1.03 1.04 1.05 1.06 1.06 1.07 1.05 1.03 0.98 0.97 1.03 0.97 1.03 1.14 1.12 1.12 1.13 1.14 1.10 1.06 0.95 0.90 0.85 0.94 1.13 1.20 1.21 1.22 1.21 1.25 1.26 1.26 1.24 1.20 1.14 1.08 1.05 1.04 1.04 1.05
1.16 1.14 1.17 1.20 1.20 1.24 1.32 1.35 1.36 1.38 1.39 1.40 1.37 1.38 1.35 1.28 1.17 1.09 1.04 1.07 1.05 1.01 1.04 1.06 1.03 1.03 0.97 0.99 0.98 0.97 0.97 0.97 0.97 0.97 0.98 0.97 0.99 0.99 0.98 0.98 0.99 1.01 1.04 1.06 1.06 1.07 1.05 1.03 1.02 1.02 1.02 1.03 1.04 1.05 1.03 1.02 1.05 1.05 1.07 1.08 1.10 1.07 1.08 1.09 1.10 1.08 0.94 0.86 0.88 0.93 0.96 1.11 1.13 1.15 1.16 1.18 1.17 1.15 1.10 1.05 1.00 0.96 0.94 0.92 0.90
1.17 1.19 1.22 1.24 1.24 1.26 1.30 1.31 1.33 1.36 1.39 1.38 1.37 1.38 1.36 1.28 1.14 1.07 1.03 1.03 1.02 1.01 1.02 0.98 0.96 0.97 0.94 0.95 0.97 0.95 0.94 0.94 0.95 0.96 0.95 0.95 0.96 0.97 0.95 0.94 0.97 0.99 1.01 1.03 1.06 1.06 1.07 1.07 1.06 1.05 1.06 1.04 1.07 1.06 1.04 1.06 1.08 1.11 1.12 1.10 1.04 1.03 1.01 1.01 1.02 1.03 1.02 0.97 0.85 0.89 0.94 0.89 0.84 0.96 1.05 1.05 1.04 1.02 0.99 0.95 0.90 0.86 0.84 0.81 0.75
1.17 1.20 1.21 1.22 1.25 1.27 1.29 1.29 1.33 1.37 1.40 1.38 1.37 1.37 1.35 1.26 1.14 1.09 1.07 0.99 0.98 0.97 0.94 0.91 0.91 0.94 0.92 0.93 0.93 0.91 0.93 0.94 0.97 0.98 0.98 0.97 0.97 0.96 0.94 0.93 0.96 0.98 0.99 0.99 1.02 1.07 1.09 1.09 1.10 1.10 1.09 1.06 1.07 1.08 1.08 1.08 1.09 1.09 1.11 1.10 1.06 1.02 1.01 0.98 0.95 0.98 0.96 0.91 0.89 0.90 0.92 0.92 0.86 0.83 0.91 0.93 0.91 0.90 0.89 0.89 0.84 0.81 0.76 0.66 0.57
Wind_Speed
14 14 13 13 12 12 11 9 8 7 6 5 3 3 3 3 4 4 5 4 4 3 3 3 2 2 2 2 1 1 1 1 0 0 1 1 2 2 3 3 4 4 4 5 5 5 6 7 7 8 8 9 10 10 11 11 11 12 12 12 11 11 11 11 12 12 12 11 10 10 10 9 9 9 9 9 9 9 9 9 9 10 10 10 11
14 14 14 13 13 13 12 10 9 8 7 5 4 4 3 4 4 5 5 5 5 4 4 3 3 3 3 2 2 1 1 1 1 0 0 1 1 2 2 3 3 4 4 4 5 5 6 6 7 8 8 9 9 10 10 11 11 11 12 12 12 11 11 11 12 12 12 11 11 11 10 10 9 9 9 9 10 10 9 9 9 10 10 11 11
14 14 14 13 13 13 12 11 10 8 7 6 5 5 4 4 5 5 6 6 5 5 4 4 4 3 3 3 2 2 1 1 1 0 0 0 1 1 2 3 3 3 4 4 4 5 5 6 7 7 8 8 9 9 10 11 11 11 12 12 12 12 12 12 12 12 12 12 12 11 11 10 10 9 9 9 10 10 10 10 10 10 10 11 11
14 14 14 14 14 13 12 11 10 9 8 7 6 5 5 5 5 5 6 6 6 5 5 4 4 4 3 3 3 2 2 1 1 1 0 0 0 1 1 2 3 3 4 4 4 5 5 6 6 6 7 8 8 8 9 10 11 11 11 12 12 13 12 12 12 12 12 12 12 11 11 10 10 9 9 9 10 10 10 10 10 10 10 11 11
14 14 14 14 14 13 13 12 11 10 9 8 7 6 6 6 6 6 6 6 6 6 5 5 5 4 4 4 3 3 2 2 2 1 1 1 1 0 1 2 3 3 3 4 4 4 5 5 5 6 6 7 7 8 9 10 10 11 11 12 12 13 13 12 12 12 12 12 11 11 10 10 10 9 9 9 9 9 9 9 10 10 10 11 11
14 14 14 13 13 13 12 12 11 10 9 8 8 7 7 6 6 6 6 6 6 6 6 5 5 5 5 4 4 3 3 2 2 2 1 1 1 1 1 2 2 3 3 3 4 4 4 4 5 5 6 6 7 7 8 9 9 10 11 12 12 12 13 13 12 12 12 12 11 11 10 10 9 9 9 9 9 9 9 9 9 9 9 10 10
13 14 13 13 13 13 13 12 12 11 10 9 8 8 7 7 7 7 6 6 6 6 6 6 6 5 5 5 4 3 3 2 2 2 2 2 2 1 1 1 2 3 3 3 3 4 4 4 4 4 5 6 7 7 7 8 9 10 11 11 12 12 13 13 13 12 11 11 11 10 10 9 9 8 8 9 9 8 8 8 8 9 9 9 9
13 13 13 12 13 13 13 13 12 11 11 10 9 8 8 8 7 7 7 7 7 7 6 6 6 6 5 5 5 4 3 3 3 2 2 2 2 2 2 2 2 3 3 3 3 3 4 4 3 4 5 6 6 6 7 7 8 9 10 11 11 12 12 12 13 12 11 10 10 10 10 10 9 9 8 9 9 8 8 8 8 8 8 9 8
12 13 13 12 13 13 13 12 12 12 11 10 10 9 8 8 8 7 7 7 6 6 7 6 6 6 6 6 5 5 4 4 3 3 3 3 3 2 2 2 3 3 3 3 3 3 3 3 3 3 4 5 6 6 6 7 7 8 9 10 11 11 11 11 12 12 11 11 10 9 9 9 9 9 9 9 9 9 8 8 8 8 8 8 8
12 13 13 13 13 13 13 12 12 12 11 11 10 9 9 8 8 7 7 7 6 6 7 6 6 6 6 6 6 5 5 4 4 4 4 4 3 3 3 3 4 3 3 3 3 3 3 3 3 3 4 5 5 5 5 6 7 7 8 9 10 10 11 11 11 11 11 11 10 10 9 9 10 10 9 9 9 9 9 9 8 8 9 9 9
13 13 13 13 14 14 13 13 12 12 12 11 10 10 9 8 8 7 7 7 6 6 6 6 6 6 6 6 6 5 5 5 4 4 4 4 4 3 4 4 4 4 4 4 3 3 3 3 3 3 3 4 4 5 5 5 6 7 7 8 9 9 10 10 10 10 11 11 11 10 10 10 10 10 10 10 9 9 9 9 9 9 9 9 9
13 13 13 14 14 14 13 13 12 12 12 11 10 10 9 8 8 7 7 7 6 6 6 6 6 7 6 6 6 6 6 5 4 4 5 5 4 4 4 5 4 4 4 4 4 4 3 3 3 3 3 3 4 4 4 4 5 6 7 7 8 9 9 9 10 10 10 10 10 10 10 10 10 11 11 10 10 10 9 9 9 9 9 9 9
14 14 14 14 14 14 14 13 13 12 12 11 10 10 9 9 8 7 7 7 7 6 6 7 7 7 7 6 7 6 6 6 5 5 6 5 5 5 5 5 5 5 5 5 5 4 4 3 3 3 3 3 3 3 3 4 4 5 6 7 7 8 8 8 9 9 9 10 10 9 10 10 10 10 10 10 10 10 10 9 9 9 9 9 9
14 14 15 15 14 14 14 14 13 13 12 11 10 10 9 9 8 7 7 7 7 7 7 7 7 7 7 7 7 7 6 6 6 6 6 6 6 6 6 6 6 5 5 5 5 5 4 4 3 3 2 2 3 3 3 3 3 4 5 5 6 6 7 7 8 8 8 9 9 9 9 9 10 10 10 10 10 10 10 10 9 9 9 9 9
15 15 15 15 15 15 14 14 13 13 12 11 11 10 9 9 8 8 7 7 7 7 7 7 7 7 7 7 7 7 7 7 7 6 7 7 7 7 6 6 6 6 5 6 6 6 5 4 3 3 2 2 3 3 3 3 3 3 3 4 4 5 5 6 6 7 7 8 8 8 8 9 9 9 10 10 10 10 9 9 9 9 9 9 9
14 14 14 15 15 15 14 14 13 13 12 11 11 10 10 9 8 8 7 7 7 7 7 7 7 8 7 7 7 6 6 7 7 7 7 7 7 7 7 7 6 6 6 6 7 6 5 5 4 3 3 3 3 4 4 3 3 3 3 3 3 3 4 5 5 5 6 6 6 7 7 7 8 8 9 9 9 9 9 9 9 9 9 8 8
14 14 14 15 15 15 14 14 13 13 12 11 11 10 10 9 8 8 7 7 7 8 8 8 8 8 7 7 7 6 6 6 7 7 7 6 7 7 8 7 7 7 7 7 7 7 6 5 4 4 4 4 4 4 4 4 3 3 2 2 2 2 3 3 3 4 4 5 5 5 6 6 7 7 7 8 8 8 8 8 8 8 8 7 7
14 14 14 15 15 15 14 14 14 13 12 12 11 10 10 9 9 8 8 8 8 8 8 8 8 8 7 7 6 6 6 6 6 6 6 6 6 7 7 8 8 8 8 8 8 8 7 6 5 5 5 5 5 5 5 5 4 4 3 2 2 2 2 2 2 3 3 4 4 4 4 5 5 6 6 6 6 7 7 7 7 7 7 7 7
14 14 14 15 15 15 15 14 14 13 13 12 11 11 10 9 9 8 9 8 8 8 8 8 8 7 7 7 6 6 6 6 6 6 6 6 6 6 7 7 7 8 8 9 9 8 8 7 6 6 6 5 5 6 6 6 5 5 4 4 3 3 2 1 2 2 3 3 3 3 3 4 4 4 5 5 5 5 6 6 6 6 6 6 6
13 14 14 15 15 15 15 15 14 14 13 12 11 11 10 9 9 9 9 8 8 8 8 8 7 7 7 7 6 6 6 6 6 6 6 6 6 6 6 6 7 8 9 9 9 9 9 8 7 7 7 6 6 6 7 7 7 6 6 5 4 4 3 3 3 3 3 3 3 3 3 3 3 3 3 3 3 4 4 5 5 5 5 5 5
13 14 14 15 15 15 15 15 14 14 13 12 11 10 10 9 9 9 9 8 8 8 8 8 8 7 7 7 7 7 6 6 6 6 6 6 6 6 6 6 6 7 8 9 9 9 9 9 8 8 7 7 6 7 7 8 8 8 7 7 6 5 5 4 4 3 3 3 3 3 3 3 3 2 2 2 2 2 2 3 3 4 4 4 4
13 14 15 16 16 15 15 15 14 14 13 12 11 10 10 9 9 9 9 9 8 8 8 8 8 8 8 7 7 7 6 6 6 6 6 6 6 6 6 6 6 7 8 8 9 10 10 9 8 8 8 7 6 7 8 8 8 8 8 8 7 7 6 5 5 5 4 4 4 4 4 4 3 3 2 2 1 1 1 1 2 2 3 3 3
14 14 15 16 16 15 15 15 15 14 13 12 11 10 10 10 9 9 9 9 9 9 9 9 8 8 8 8 8 7 6 6 6 6 6 6 6 6 6 6 6 6 7 7 8 9 9 9 8 9 8 8 7 7 8 8 8 8 9 8 8 8 7 7 6 6 5 5 5 5 5 5 5 4 4 3 3 2 1 1 0 1 1 1 2
15 15 15 15 16 15 15 15 15 14 13 12 11 10 10 10 10 9 9 9 9 9 9 9 9 9 8 8 8 7 6 6 6 6 6 6 6 6 5 5 5 5 6 6 7 8 8 8 9 9 9 9 8 8 8 8 8 9 9 9 9 8 8 8 7 7 7 6 6 6 6 6 6 6 5 5 4 4 3 2 2 1 1 0 0
15 15 16 16 15 15 15 15 14 14 13 12 11 11 10 10 10 10 9 9 9 9 9 9 9 8 8 8 7 7 7 6 6 6 6 6 6 5 5 5 5 5 6 6 6 7 7 8 8 9 9 9 8 8 8 8 8 9 9 9 9 9 9 9 9 8 8 8 8 7 7 7 7 7 6 6 6 5 5 4 3 3 2 2 2
15 16 16 16 16 16 16 15 15 14 13 12 11 11 10 10 10 10 9 9 9 9 9 9 8 8 8 8 8 7 7 7 7 6 6 6 6 5 5 5 6 6 6 6 6 7 7 7 8 8 8 9 8 8 8 8 8 8 9 9 10 10 10 10 9 9 9 9 9 8 8 8 8 8 7 7 7 7 6 5 5 4 4 3 3
17 17 17 17 16 17 16 15 15 14 13 12 11 10 10 11 10 10 10 10 10 9 9 9 8 8 8 8 8 8 7 7 7 6 6 6 6 6 5 6 6 6 6 7 7 7 7 6 6 7 7 8 8 8 8 8 8 8 9 9 10 10 10 10 10 10 10 10 10 9 9 9 9 9 8 8 7 7 7 7 6 6 5 5 4
18 18 17 16 17 17 17 16 15 14 13 12 11 11 11 11 11 10 10 10 10 10 9 9 9 8 8 8 8 8 7 7 7 7 6 6 6 6 6 6 6 6 7 7 7 6 6 6 6 6 6 7 8 8 8 8 8 8 8 9 9 10 10 10 10 10 10 10 10 10 10 9 9 9 9 8 8 8 8 8 7 7 7 6 6
19 19 18 17 16 16 17 16 15 14 13 12 11 11 11 11 11 11 10 11 10 10 9 9 9 9 9 8 8 8 8 7 7 7 7 7 7 7 7 7 7 7 7 7 7 7 7 7 7 6 6 6 7 8 8 8 9 9 8 9 9 9 9 10 10 10 11 11 10 11 10 10 10 10 9 9 8 8 8 8 8 8 7 7 7
20 19 19 18 17 16 17 16 15 14 12 12 11 11 12 11 11 10 10 10 10 10 10 9 9 9 9 8 8 8 8 7 7 7 7 7 7 7 7 8 8 8 8 8 8 8 7 7 6 6 5 6 7 7 8 8 9 9 8 8 8 9 9 9 9 10 10 11 11 11 11 10 10 10 10 9 9 8 8 8 8 8 8 7 7
20 20 20 19 17 17 16 16 15 14 12 12 12 12 12 11 11 10 10 10 10 10 10 10 9 9 9 9 8 8 8 7 7 7 7 7 7 7 7 7 7 7 7 7 7 7 6 6 6 5 5 6 6 7 7 8 8 9 8 8 8 8 9 9 9 9 10 10 10 11 11 10 10 10 10 10 9 9 8 8 8 8 8 8 8
19 20 21 19 19 18 16 16 15 14 13 12 12 12 12 11 11 10 10 10 10 10 10 10 10 9 9 9 9 8 8 8 7 7 7 6 6 6 6 6 6 6 6 6 6 6 6 6 5 5 5 5 5 6 6 6 7 8 8 8 8 8 8 8 9 9 9 9 10 10 10 10 10 10 10 10 10 9 9 9 8 8 8 8 7
19 19 21 20 19 20 18 15 15 14 13 12 12 12 12 11 11 10 10 11 11 11 11 10 10 10 9 9 9 9 8 8 8 7 6 6 6 6 6 5 5 5 5 5 5 5 5 5 5 5 5 5 4 5 5 5 6 6 6 7 7 8 8 8 8 9 9 9 9 9 9 9 9 9 9 9 9 10 9 9 8 8 7 7 6
20 19 20 20 18 19 18 15 14 14 13 13 13 13 12 11 11 11 11 11 11 11 11 11 10 10 10 10 9 9 8 8 7 7 7 6 6 6 5 5 5 5 5 5 5 5 5 5 5 5 5 5 4 5 5 5 5 5 5 6 6 7 8 8 8 8 8 8 8 8 8 8 8 8 8 8 8 9 9 8 7 7 7 7 7
20 19 19 20 18 17 17 16 14 14 14 13 13 13 13 12 12 12 12 11 11 11 11 11 11 11 10 10 9 9 8 8 8 8 7 7 6 6 6 6 6 5 5 5 5 5 5 5 5 5 4 4 4 4 4 4 4 4 4 5 6 7 7 7 8 8 8 8 8 7 7 7 7 7 7 7 7 7 8 8 8 7 7 7 7
19 19 19 19 19 18 18 16 15 14 14 14 13 13 13 12 12 12 12 11 12 12 12 11 11 11 10 10 9 9 9 8 8 8 7 7 6 6 6 6 6 5 5 5 5 5 5 4 4 4 4 4 4 4 4 4 4 4 4 5 5 6 6 7 7 8 8 8 7 7 7 7 6 6 7 7 6 6 7 7 7 7 7 7 7
19 19 19 19 19 19 18 17 16 15 15 14 14 14 13 13 12 12 11 11 12 12 12 11 11 11 10 10 10 9 9 8 8 8 8 7 7 6 6 6 6 6 6 5 5 4 4 4 4 4 4 4 4 3 3 3 3 3 3 4 4 5 5 6 6 7 7 7 7 7 7 7 6 6 6 6 5 5 5 5 6 6 6 6 6
18 19 18 18 18 18 17 17 16 15 15 15 14 14 14 13 12 12 11 11 11 12 12 11 11 10 10 10 10 9 9 9 9 8 8 8 7 7 7 6 6 6 6 5 5 5 4 4 4 4 4 4 3 3 3 3 2 3 3 3 3 3 4 5 5 6 7 7 7 7 6 6 6 6 5 5 5 5 5 4 5 5 5 5 5
12 19 18 18 17 17 17 17 17 16 15 15 14 14 14 13 12 12 12 11 11 12 11 11 10 10 10 10 10 9 9 9 9 9 8 8 7 7 7 7 7 6 6 6 5 5 5 5 4 4 4 4 3 3 3 2 2 2 2 2 2 2 4 4 4 5 6 6 6 6 6 6 5 5 5 4 4 4 4 5 5 5 5 5 5
5 13 18 18 16 16 17 17 17 16 15 14 14 15 14 13 13 12 12 12 11 11 11 11 10 10 10 10 10 9 9 9 9 8 8 8 7 7 7 7 7 7 6 6 6 6 6 5 5 4 4 4 3 3 3 2 2 2 1 1 1 1 3 3 4 4 5 5 5 5 5 5 5 5 4 4 4 4 4 4 4 5 5 5 5
3 7 12 15 14 14 15 16 18 17 16 15 15 15 14 14 13 13 12 12 12 11 11 11 11 10 10 10 9 9 8 8 8 8 8 7 7 7 7 7 7 7 6 6 6 6 6 6 5 5 5 4 4 4 3 3 2 2 2 0 0 1 1 2 2 3 4 4 4 5 5 5 5 5 4 4 4 3 3 4 4 4 4 4 5
7 6 9 12 12 12 12 14 17 18 16 15 15 15 14 14 14 13 13 12 12 11 11 11 10 10 10 10 9 9 8 8 7 7 7 7 7 7 7 7 7 6 6 6 6 6 6 6 6 5 5 5 5 5 4 3 3 3 3 1 1 0 1 1 2 3 4 4 4 4 4 4 4 4 4 4 4 4 4 4 4 4 4 4 4
10 9 9 12 12 12 12 12 14 16 16 15 15 15 15 14 14 13 13 12 12 12 11 11 10 10 10 10 9 9 8 8 7 7 6 6 7 7 7 7 7 7 7 7 6 6 6 6 6 6 6 5 5 6 5 4 4 4 3 2 2 1 1 1 2 2 3 3 4 4 4 4 4 4 4 4 4 4 3 3 3 3 3 3 3
12 10 10 12 13 13 13 13 14 15 16 16 15 15 15 15 14 13 13 12 12 12 11 11 10 10 10 9 9 8 8 8 7 7 6 6 7 7 7 7 7 7 7 7 7 7 7 6 6 6 6 6 6 6 6 5 5 4 3 3 3 3 2 2 2 2 2 3 3 4 4 4 4 4 4 4 4 3 3 3 3 2 2 2 2
14 13 11 11 13 13 13 14 14 15 15 15 15 15 15 15 14 14 13 13 12 12 12 11 11 10 10 9 9 9 8 8 7 7 7 7 7 7 7 7 7 7 7 7 7 7 7 7 7 7 7 7 7 7 7 6 6 5 4 3 3 4 3 3 3 2 2 2 2 3 4 4 4 4 4 4 4 3 3 3 2 2 1 1 1
16 14 13 13 13 13 13 14 14 15 16 16 15 15 15 15 15 14 14 14 13 13 13 12 12 11 10 9 9 9 8 8 7 7 7 7 7 7 7 7 7 7 7 7 7 7 7 7 7 7 7 7 7 7 7 7 7 6 5 5 4 4 4 5 4 3 2 2 2 2 3 3 4 4 4 4 3 3 3 3 2 2 1 1 1
16 15 14 14 15 15 15 16 16 17 17 17 16 16 16 15 15 15 15 15 15 14 14 13 12 11 10 10 9 9 8 8 7 7 7 7 6 6 6 6 7 7 7 7 7 7 7 8 8 8 8 8 7 7 8 8 8 7 7 6 5 4 5 5 5 4 3 3 2 2 2 3 3 3 3 3 3 3 3 2 2 1 1 2 2
16 16 14 14 15 16 16 17 17 17 17 17 17 17 16 16 16 15 15 16 16 15 14 13 12 11 11 10 10 9 8 8 7 7 7 7 7 7 6 6 7 7 7 7 7 7 8 8 8 9 8 8 8 8 8 8 8 8 7 7 5 5 5 5 5 5 4 4 3 3 2 2 3 3 3 3 3 3 2 2 2 2 2 2 3
16 15 14 14 15 16 17 17 17 17 17 18 18 18 17 16 16 16 16 16 16 15 14 13 12 12 11 10 10 9 8 7 7 7 7 8 8 7 7 7 7 7 7 7 7 8 8 8 9 9 9 9 9 8 8 9 9 8 8 8 7 6 6 6 6 6 5 5 4 4 3 3 3 3 3 3 3 3 2 2 2 2 3 3 4
15 14 14 14 14 16 16 17 17 16 17 18 18 18 18 17 17 17 17 17 17 16 15 14 13 12 11 11 10 9 8 7 7 7 8 8 8 8 8 7 7 7 7 7 7 8 8 8 9 9 9 9 9 9 9 9 9 9 9 9 8 8 7 7 7 7 6 6 5 5 5 5 4 4 4 3 3 3 3 3 3 3 4 4 4
15 14 14 14 15 16 17 17 17 16 16 17 18 18 18 18 18 18 18 18 18 17 15 15 14 13 12 11 10 9 8 7 7 8 8 8 9 9 8 8 8 7 7 7 7 8 8 8 9 9 9 9 9 9 9 9 9 10 10 10 9 9 9 8 8 8 7 6 6 6 6 5 5 5 5 4 4 4 4 4 4 4 5 5 5
Wind_Direction
227 224 222 220 219 217 220 222 225 227 228 230 230 241 249 247 237 229 223 221 219 215 213 214 218 223 224 229 248 293 318 324 285 26 28 33 37 39 43 44 48 51 53 58 62 65 66 68 69 71 71 70 70 66 63 63 64 64 64 64 66 70 72 72 70 69 71 75 81 88 94 100 101 99 97 96 96 95 97 98 97 96 95 92 91
221 222 219 217 216 216 219 221 224 226 227 227 230 242 248 249 241 231 225 223 222 220 220 221 224 226 229 233 244 262 275 273 249 248 18 30 38 41 43 45 51 56 60 66 71 72 72 75 77 77 74 71 71 69 67 66 65 65 65 65 66 68 71 73 72 71 72 76 81 87 92 96 98 99 97 97 96 93 95 96 96 96 97 94 91
215 217 215 214 214 215 217 219 222 225 226 225 231 240 246 248 242 235 227 225 224 224 224 225 226 225 231 235 239 243 251 259 242 220 242 27 42 46 50 53 60 66 72 78 80 80 80 82 82 80 75 73 73 72 72 69 66 65 65 65 66 68 71 73 72 73 75 78 82 86 90 94 97 97 98 98 97 94 94 93 92 93 95 94 91
211 211 212 212 214 215 216 217 221 225 226 225 231 238 245 245 241 237 229 226 225 226 226 226 226 226 231 233 233 234 245 249 229 215 215 220 109 59 59 68 78 81 82 88 88 89 90 89 86 81 76 75 74 74 75 72 67 65 64 64 66 68 71 72 73 75 77 79 82 85 88 94 96 95 97 97 97 96 95 94 93 93 94 93 91
209 208 209 212 215 215 215 217 220 224 226 226 230 235 241 242 240 237 230 227 226 227 228 228 227 227 230 229 229 232 237 233 221 216 212 225 215 115 84 88 93 95 96 99 100 100 100 94 89 82 77 78 76 75 77 73 68 65 64 64 65 67 69 70 73 76 77 79 81 83 85 91 94 94 97 97 98 97 95 94 94 94 92 90 88
208 208 208 212 216 216 216 218 221 223 226 228 229 233 237 239 238 235 231 228 228 228 229 229 228 229 229 226 227 228 228 222 219 219 219 226 221 172 122 108 105 108 111 114 113 110 106 100 94 85 79 81 80 79 79 74 69 66 64 64 64 66 68 69 73 76 77 79 80 80 83 87 88 91 97 99 100 101 97 94 93 91 90 89 88
208 209 210 214 216 217 218 219 222 224 227 228 230 232 235 238 236 233 232 230 229 229 230 231 231 231 227 222 222 223 221 218 219 220 221 226 224 196 155 136 127 127 127 127 124 120 114 107 100 87 81 84 84 82 80 76 72 69 65 64 64 66 67 69 72 75 77 79 78 78 82 86 86 89 96 99 100 102 101 99 96 93 92 92 91
211 211 212 214 216 217 219 222 223 225 228 228 229 231 236 238 234 233 234 233 231 231 232 233 231 228 225 223 223 225 222 218 218 213 218 227 223 203 177 165 149 144 143 142 136 130 122 114 106 92 87 89 88 85 81 79 77 72 68 65 64 66 67 69 71 73 75 78 79 79 82 85 86 88 93 98 98 100 101 100 98 96 94 92 90
214 213 213 216 218 219 221 223 223 225 227 227 229 232 235 234 232 234 235 235 234 235 234 233 230 227 227 227 227 225 221 216 214 209 216 226 220 209 196 183 167 159 158 158 151 144 134 125 118 103 96 96 95 89 84 82 79 74 71 68 66 66 68 70 71 71 72 76 80 82 84 86 86 88 91 95 98 97 98 99 98 96 94 91 90
217 216 217 219 219 220 222 223 224 225 226 227 229 232 232 229 230 234 235 235 236 237 234 233 230 229 230 229 227 223 219 216 213 214 219 224 220 214 207 195 183 176 172 168 163 157 146 138 130 114 106 105 102 94 87 83 79 77 75 72 69 68 69 72 73 71 71 74 78 81 84 87 88 89 90 93 97 96 97 98 97 96 94 93 91
223 222 222 223 221 221 222 222 223 224 225 226 229 230 226 226 230 232 234 234 233 235 231 230 230 229 229 227 224 221 220 221 222 222 220 221 222 217 210 203 195 190 184 175 171 164 155 148 137 127 119 115 110 101 94 87 81 81 80 76 73 71 72 75 75 73 73 74 76 79 83 86 87 89 90 92 95 95 97 98 98 97 96 95 94
228 225 226 225 222 221 220 220 222 222 224 225 226 225 223 226 230 231 233 231 229 230 229 229 230 230 228 225 224 224 226 230 233 228 222 222 226 223 215 210 205 201 195 185 177 169 163 158 148 142 136 131 124 115 105 97 89 86 85 79 76 76 77 78 77 77 76 75 77 80 84 85 86 87 89 90 91 93 95 97 99 97 95 95 95
230 228 227 224 222 220 219 218 219 221 222 222 221 219 220 224 228 230 230 228 227 229 229 229 229 228 228 228 227 229 231 234 235 229 226 226 227 227 223 216 212 207 203 196 184 173 170 168 163 161 159 156 146 134 123 113 103 94 90 84 80 80 81 81 79 79 79 79 80 83 86 86 86 86 87 88 89 90 92 95 98 97 95 95 94
230 230 227 224 222 219 217 217 218 219 219 217 215 216 219 224 227 230 230 228 228 229 229 228 227 228 230 232 231 231 232 232 232 229 228 229 228 228 225 217 214 213 208 202 190 180 178 178 176 176 180 183 170 157 146 135 121 106 97 90 86 84 86 85 83 82 81 82 83 85 86 87 87 87 87 87 87 88 89 91 94 95 96 95 93
230 228 225 223 220 217 216 216 217 216 214 212 212 216 220 225 229 231 231 228 229 228 227 227 229 231 233 236 234 232 233 232 231 230 230 231 228 225 222 217 216 217 213 204 195 189 187 186 185 185 192 199 191 177 164 157 143 123 108 99 94 91 92 91 87 86 85 85 86 86 87 88 88 88 87 86 86 86 87 88 90 92 94 95 94
227 224 222 219 217 215 215 215 214 213 211 211 214 219 222 226 229 231 232 229 228 227 227 229 232 234 234 235 235 234 235 234 231 229 229 230 228 223 222 221 220 220 216 208 200 196 196 196 196 199 210 216 207 193 181 175 166 149 130 116 108 101 100 99 95 92 92 92 92 90 89 89 89 89 88 87 86 86 86 87 88 90 91 93 93
222 219 218 216 214 213 213 213 211 210 211 213 217 221 224 227 230 232 232 228 226 227 228 231 233 233 232 232 233 234 234 233 230 228 228 229 226 224 225 227 225 222 220 214 208 205 205 208 211 217 226 230 222 212 203 195 190 181 165 149 136 124 115 110 106 102 102 104 102 97 95 94 93 92 90 88 87 87 87 87 87 89 90 91 91
219 217 215 213 212 211 211 211 210 211 213 216 219 222 226 229 232 232 229 226 224 227 228 230 230 230 230 230 231 231 231 229 228 227 228 226 225 225 228 230 226 224 225 220 215 213 214 216 220 226 233 238 234 227 220 210 206 204 197 191 178 163 146 130 127 124 120 119 117 110 106 106 104 99 95 92 90 87 87 87 87 88 89 90 90
219 215 213 212 211 210 210 211 212 214 216 219 222 224 227 230 231 228 225 223 223 225 226 226 227 228 229 228 227 226 226 226 227 226 224 222 223 224 227 230 228 227 228 224 222 220 219 219 222 227 232 239 241 237 233 223 216 217 214 208 202 196 193 185 174 164 154 146 143 136 128 124 117 110 103 99 94 89 87 87 88 89 90 90 91
219 215 212 211 209 210 210 213 214 215 218 220 222 224 226 227 225 222 221 221 221 222 221 223 225 225 224 223 222 221 223 225 226 225 220 219 221 224 226 229 232 232 232 230 228 225 223 225 228 229 231 241 247 244 241 234 226 223 221 216 214 217 223 223 212 200 189 178 174 172 164 154 143 132 121 112 102 95 90 89 89 88 89 91 94
220 216 213 209 208 210 211 214 214 215 218 220 223 224 224 223 220 218 218 219 218 218 218 221 223 222 221 220 221 222 223 223 223 222 220 219 221 225 226 228 235 236 236 235 232 231 230 231 231 229 232 244 251 248 245 239 230 226 224 223 225 229 231 227 224 222 213 204 202 200 196 191 185 174 160 144 124 109 99 93 94 92 92 93 95
220 217 213 210 209 211 211 214 215 216 218 221 223 223 222 220 218 217 218 218 217 218 219 221 222 221 220 221 224 224 223 224 225 224 222 222 221 225 227 228 234 238 240 238 236 236 233 231 230 228 233 244 251 249 245 240 232 227 227 228 232 234 232 229 229 231 228 226 224 219 216 217 217 215 212 207 202 177 141 112 103 101 100 98 99
219 217 214 212 212 212 213 214 215 216 219 221 222 222 221 219 218 217 218 218 218 221 222 222 223 222 221 223 224 222 224 227 227 223 220 220 221 225 227 229 233 238 242 241 239 235 231 233 233 231 235 244 251 248 242 238 233 229 229 232 235 236 234 232 233 235 236 237 235 232 231 232 233 234 233 232 233 234 231 223 188 133 117 108 108
218 217 216 215 214 213 214 214 214 216 219 221 221 222 221 219 218 217 218 219 220 222 224 224 224 223 222 224 223 222 227 229 225 219 217 218 219 222 224 229 234 240 242 240 238 233 232 238 239 238 240 244 248 244 238 239 236 232 232 234 236 236 236 235 236 239 239 240 239 238 240 241 241 242 241 241 241 242 245 245 246 250 246 232 174
220 218 216 215 213 212 214 214 214 216 219 220 221 222 220 219 219 217 218 219 221 222 224 225 224 223 222 223 223 225 229 227 222 220 220 218 216 218 223 231 236 241 242 239 237 236 241 245 244 242 243 244 244 239 237 240 238 234 234 235 236 237 237 237 238 240 241 241 240 241 243 244 244 245 247 247 248 247 249 250 252 255 257 261 260
222 219 216 213 212 213 214 214 215 216 217 219 221 220 219 219 218 217 218 219 220 221 223 223 224 224 223 222 222 225 228 225 222 221 219 216 217 222 230 237 242 246 246 242 240 243 249 252 250 247 245 244 239 236 238 242 240 236 236 236 237 238 238 239 239 240 242 243 243 243 244 244 243 247 251 252 252 250 250 252 254 256 258 262 264
221 220 217 213 212 212 213 213 214 215 216 218 219 219 218 217 215 215 217 218 218 220 221 222 223 222 221 220 220 223 225 223 221 219 216 217 223 228 235 242 248 250 249 247 246 249 252 255 254 253 250 243 237 237 240 243 242 238 237 237 238 238 239 240 240 242 243 244 245 246 246 244 242 245 251 253 254 252 251 252 254 256 257 260 262
220 218 215 212 211 210 212 212 212 214 217 217 217 217 216 214 214 214 215 216 217 219 221 221 220 218 217 217 218 220 221 222 221 220 221 223 227 231 235 241 245 247 248 249 250 252 255 257 259 259 253 244 239 240 240 242 242 240 240 240 239 240 241 241 241 243 243 243 244 246 246 244 242 243 247 252 255 253 250 251 253 256 257 258 260
220 216 213 211 210 209 210 211 212 214 214 213 214 214 212 212 213 214 215 216 217 218 218 217 214 212 213 214 214 217 219 223 226 226 228 227 229 234 238 241 242 245 248 252 254 255 258 261 263 262 256 246 240 239 239 241 243 242 242 241 240 240 241 241 242 243 243 241 241 244 246 244 242 241 242 247 251 250 249 251 253 255 257 258 260
219 215 212 211 209 206 207 210 211 212 210 209 213 212 211 212 213 214 215 215 214 215 213 211 210 210 211 211 213 218 222 227 231 231 229 230 233 238 241 243 245 247 250 253 254 255 257 259 261 260 257 249 241 240 240 241 242 242 242 240 239 240 241 242 242 243 243 241 240 243 244 243 241 240 240 242 247 249 252 253 254 255 256 258 260
219 212 209 210 208 204 204 207 209 209 208 209 211 211 211 213 214 215 214 212 212 213 211 208 209 210 210 211 215 221 226 229 230 230 230 233 236 238 241 243 246 248 250 250 249 249 251 253 257 258 258 252 244 241 240 240 241 242 242 241 240 241 242 242 242 243 242 241 241 243 242 241 241 241 240 243 247 249 252 254 255 256 256 258 260
216 210 206 208 208 205 203 206 208 208 208 208 209 210 211 212 214 214 212 210 211 212 209 208 208 209 210 212 218 223 226 227 227 230 232 232 232 234 238 242 244 246 245 244 243 244 247 250 253 255 256 253 245 240 238 238 241 243 243 241 241 241 244 243 241 241 241 240 242 243 240 240 242 242 242 246 249 248 249 253 255 255 255 256 259
215 212 208 209 209 206 204 205 207 207 207 207 208 209 211 212 212 212 209 209 212 212 209 207 207 207 210 214 219 222 224 226 227 229 229 226 226 230 235 238 239 239 239 240 241 243 245 247 249 250 252 251 247 240 237 238 241 243 243 242 241 241 243 242 239 238 237 238 241 242 238 238 241 242 243 247 248 245 247 251 251 249 248 250 254
217 216 210 207 207 202 202 205 206 207 206 206 209 210 211 211 211 210 209 211 214 213 209 208 207 207 211 215 219 222 224 227 228 226 224 223 225 228 231 232 232 233 237 239 241 244 244 245 245 247 250 249 246 242 240 243 246 246 245 245 244 243 243 241 239 236 235 237 238 237 235 236 238 240 242 246 247 242 242 247 246 244 244 248 254
218 216 210 207 206 200 201 206 207 208 208 208 209 210 211 211 211 211 211 213 213 210 209 209 208 209 211 215 219 222 225 227 226 224 223 223 226 227 227 226 226 228 233 237 240 243 242 242 243 244 247 246 244 245 246 247 248 249 251 253 250 246 244 241 239 237 234 233 233 234 234 235 237 238 239 242 245 241 239 244 246 247 250 253 258
220 218 214 210 207 204 205 208 208 209 209 211 210 210 212 212 212 211 212 212 210 208 209 209 210 211 214 218 221 223 224 224 224 224 223 224 225 226 226 225 224 226 230 235 237 239 238 239 242 242 241 240 240 244 248 248 249 252 255 258 254 247 243 241 239 237 232 228 229 233 234 234 235 235 235 238 242 241 240 242 246 249 252 256 259
221 219 217 209 204 205 208 209 209 209 210 211 211 210 211 211 211 209 210 210 209 209 209 210 212 214 217 220 221 221 222 223 225 224 223 222 223 224 226 225 226 227 230 233 237 238 236 235 238 241 239 237 237 239 245 248 248 249 253 258 256 247 243 241 238 235 229 226 229 231 229 231 232 233 234 235 237 240 239 240 244 249 253 257 260
216 213 211 207 205 207 209 209 209 211 211 212 212 211 210 210 209 207 208 209 209 209 209 210 213 215 217 218 218 218 220 224 225 225 223 221 222 224 226 225 225 227 230 234 236 235 234 234 235 240 240 234 233 233 237 242 239 239 247 256 256 247 241 240 237 232 226 225 228 227 224 224 225 227 230 230 231 235 238 241 245 251 257 261 265
206 207 207 208 210 211 210 208 209 210 212 213 211 209 209 209 207 207 209 209 209 208 208 210 212 214 215 215 216 218 221 224 225 224 222 221 222 225 226 228 227 227 231 233 235 234 232 231 230 233 234 229 228 227 228 231 225 228 238 252 259 248 241 239 239 234 226 225 224 220 216 215 216 220 223 225 230 238 244 248 249 254 263 267 270
191 203 207 210 213 212 210 208 208 208 210 212 209 207 208 207 206 207 208 208 208 209 209 211 213 214 214 213 214 217 220 222 223 221 220 220 222 225 227 230 229 230 232 233 235 235 229 226 226 224 220 219 223 224 223 219 210 210 219 247 276 251 243 242 244 235 221 215 213 209 206 208 212 216 220 224 231 243 250 250 253 259 265 269 271
192 191 199 201 204 207 208 208 207 208 210 210 207 206 204 203 204 204 204 205 207 209 210 211 212 211 210 209 211 213 215 216 215 214 215 217 219 222 226 228 230 232 235 235 237 234 228 226 225 219 214 213 217 220 216 212 205 199 199 207 354 271 249 238 230 213 199 200 204 200 201 208 213 215 220 228 233 240 244 247 258 265 266 268 271
212 203 196 195 199 202 203 205 205 205 208 207 204 203 203 202 201 200 201 203 206 209 209 209 209 207 205 206 207 207 208 207 206 206 207 211 214 217 221 224 228 232 234 237 237 234 230 228 225 220 215 213 215 215 210 216 222 214 207 203 199 254 258 209 193 191 196 204 207 204 206 214 217 218 224 229 233 237 243 254 264 267 267 271 271
213 211 207 206 208 207 204 202 201 201 203 203 201 201 202 201 200 199 199 201 205 206 205 205 204 203 202 203 203 203 203 202 201 203 205 208 211 215 221 225 229 231 233 236 237 234 231 229 227 223 217 213 215 214 215 226 227 212 210 220 224 223 220 193 185 199 213 213 212 213 217 221 221 223 225 228 232 235 243 257 266 267 272 275 273
213 211 208 208 210 210 206 200 198 198 198 199 199 199 199 200 200 198 197 200 202 201 199 200 200 199 200 202 202 201 201 203 203 206 209 211 213 218 224 228 232 233 235 236 237 236 233 229 227 224 219 215 215 216 222 229 220 211 221 233 230 226 227 207 191 202 218 213 218 226 228 228 229 231 232 231 233 238 243 251 259 262 267 271 274
215 215 211 205 204 205 203 198 195 193 192 193 194 196 196 198 199 197 197 199 198 197 197 198 198 198 199 202 203 204 204 206 209 211 214 215 218 223 227 230 233 234 235 236 237 238 235 232 229 225 222 221 220 220 224 226 221 222 232 232 233 238 230 205 197 214 229 221 228 231 231 231 234 239 239 235 235 240 241 244 252 256 261 269 273
216 218 216 210 208 206 203 200 196 193 193 195 196 196 195 196 198 198 199 199 197 198 199 198 197 197 200 202 204 206 207 210 213 216 218 220 223 227 231 233 234 235 236 237 237 238 236 234 231 228 225 224 224 223 224 225 224 228 234 236 248 250 225 206 210 225 233 243 244 233 234 235 235 238 236 231 233 236 239 246 255 260 265 273 281
216 217 217 217 216 214 211 207 203 201 201 202 204 201 199 198 200 200 201 200 198 200 200 197 197 197 200 203 205 207 210 213 217 220 222 224 226 229 233 235 235 236 238 239 239 239 238 235 232 230 228 226 225 225 224 224 226 229 232 238 251 245 223 218 223 222 222 238 247 240 240 232 225 226 224 224 229 233 241 248 254 263 267 274 287
216 216 216 217 217 215 212 210 208 208 207 208 207 205 203 203 202 203 202 201 199 199 198 197 198 199 200 203 206 209 213 218 221 223 227 229 230 231 233 236 238 239 240 241 242 241 239 236 232 230 229 228 229 229 227 226 229 230 230 235 241 234 229 232 231 226 222 221 229 237 231 211 207 214 219 223 226 228 236 242 249 264 272 281 288
214 214 214 216 216 213 210 209 210 210 209 209 208 206 205 204 204 203 203 201 199 198 198 198 199 200 201 203 207 211 216 220 223 226 229 232 233 234 235 238 241 243 243 244 245 243 240 237 233 231 231 231 232 232 231 230 232 233 231 233 234 234 239 238 230 230 227 219 224 227 215 207 210 220 227 225 224 230 238 247 257 270 282 291 293
213 213 212 212 213 211 208 207 207 207 207 207 207 207 206 205 204 202 201 200 199 199 199 199 200 200 202 204 207 212 217 222 226 228 231 234 236 236 237 238 240 242 245 248 248 245 241 237 236 234 234 234 234 233 234 234 233 234 234 235 236 238 241 237 229 226 226 226 225 219 215 217 217 223 231 230 230 237 248 259 269 281 289 293 293
215 213 212 209 208 209 207 204 203 202 202 203 204 204 204 204 203 201 199 198 198 199 199 199 200 201 202 205 208 213 220 227 229 230 233 237 239 238 238 238 239 240 245 249 249 246 242 239 238 236 234 235 235 235 237 238 237 236 236 236 239 239 239 240 235 228 226 226 219 215 220 225 223 227 232 236 241 245 252 261 271 282 287 288 288